Location: Lake Runnemede Observatory
(43.4843°N, 72.3851°W)
Time: 17:21:15
(UTC-04:00)

Amateur Radio Satellites - All Passes

Search period start: 24 October 2014 16:51
Search period end: 25 October 2014 16:51
Location: Lake Runnemede Observatory, 43.4843°N, 72.3851°W

Satellite Date Start Highest point End Downlink Frequencies (MHz)
Time Altitude Azimuth
Hamsat 24 Oct 17:01:49 17:05:23 27° 68° (ENE) 17:08:55 145.90 MHz
Saudisat 1A 24 Oct 17:06:31 17:10:43 43° 242° (WSW) 17:14:54 436.775 MHz
Uosat F 24 Oct 17:13:02 17:17:30 32° 264° (W) 17:22:00 435.120 FM
OPAL 24 Oct 17:13:41 17:17:21 20° 95° (E) 17:20:59 ?
AO-7 24 Oct 17:18:24 17:25:48 36° 263° (W) 17:33:17 29.400 - 29.500 MHz
UOSAT-12 24 Oct 17:18:54 17:21:02 13° 329° (NNW) 17:23:10 437.025 FM, 437.400 FM
JAS-2 24 Oct 18:02:14 18:08:01 57° 261° (W) 18:14:39 435.800 - 435.900 CW/SSB, 435.910 FM
ISS 24 Oct 18:03:47 18:06:53 34° 21° (NNE) 18:09:58 145.800 FM
SO-67 24 Oct 18:29:25 18:32:22 28° 71° (ENE) 18:35:22 435.3500 MHz FM
HO-68 24 Oct 18:33:07 18:35:05 11° 45° (NE) 18:37:03 435.675 MHz FM
Hamsat 24 Oct 18:37:41 18:41:16 27° 265° (W) 18:44:51 145.90 MHz
KITSAT 1 24 Oct 18:38:08 18:43:25 18° 22° (NNE) 18:48:40 435.175 FM
OPAL 24 Oct 18:51:43 18:56:30 49° 292° (WNW) 19:01:15 ?
STRAND 1 24 Oct 18:57:02 19:01:24 27° 95° (E) 19:05:44 ?
ISS 24 Oct 19:40:27 19:43:39 43° 219° (SW) 19:46:49 145.800 FM
SO-67 24 Oct 20:03:05 20:05:24 17° 267° (W) 20:07:43 435.3500 MHz FM
UKube-1 24 Oct 20:12:18 20:13:57 12° 60° (ENE) 20:15:37 145.840 MHz, 145.915 MHz
HO-68 24 Oct 20:14:18 20:21:10 52° 66° (ENE) 20:28:05 435.675 MHz FM
KITSAT 1 24 Oct 20:33:15 20:41:04 49° 48° (NE) 20:48:49 435.175 FM
STRAND 1 24 Oct 20:35:54 20:40:41 39° 292° (WNW) 20:45:25 ?
FUNcube-1 24 Oct 20:51:13 20:53:02 12° 61° (ENE) 20:54:51 145.950 - 145.970 MHz USB
Oscar 11 24 Oct 20:51:47 20:55:20 25° 67° (ENE) 20:58:54 145.825 FM, Beacon 2401.500 USB
SO-50 24 Oct 20:59:23 21:03:52 36° 47° (NE) 21:08:22 436.795 FM
AO-40 24 Oct 21:31:10 23:17:37 23° 220° (SW) 02:34:13 Beacon 2401.320
ZACube-1 24 Oct 21:39:53 21:44:04 36° 70° (ENE) 21:48:13 437.345 MHz
RS-15 24 Oct 21:40:11 21:50:17 44° 110° (ESE) 22:00:17 29.354 - 29.394 USB, Beacon 29.352 USB
UKube-1 24 Oct 21:45:10 21:49:31 77° 257° (WSW) 21:53:55 145.840 MHz, 145.915 MHz
HO-68 24 Oct 22:02:51 22:09:07 32° 264° (W) 22:15:26 435.675 MHz FM
UOSAT-12 24 Oct 22:24:09 22:28:10 26° 43° (NE) 22:32:07 437.025 FM, 437.400 FM
FUNcube-1 24 Oct 22:24:12 22:28:47 80° 257° (WSW) 22:33:20 145.950 - 145.970 MHz USB
Oscar 11 24 Oct 22:27:33 22:31:24 31° 264° (W) 22:35:16 145.825 FM, Beacon 2401.500 USB
KITSAT 1 24 Oct 22:28:54 22:36:24 44° 249° (WSW) 22:43:53 435.175 FM
SO-50 24 Oct 22:40:03 22:44:24 33° 245° (WSW) 22:48:45 436.795 FM
ZACube-1 24 Oct 23:16:50 23:20:32 24° 266° (W) 23:24:12 437.345 MHz
MaSat-1 24 Oct 23:18:05 23:21:37 27° 110° (ESE) 23:24:53 437.345 MHz
RS-15 24 Oct 23:51:31 00:02:17 59° 313° (NW) 00:13:07 29.354 - 29.394 USB, Beacon 29.352 USB
UOSAT-12 25 Oct 00:03:59 00:08:32 48° 242° (WSW) 00:12:59 437.025 FM, 437.400 FM
MaSat-1 25 Oct 00:53:46 00:57:13 26° 304° (WNW) 01:00:23 437.345 MHz
Oscar 19 25 Oct 01:16:06 01:19:16 16° 90° (E) 01:22:26 437.125 CW, 437.150 USB
JAS-1B 25 Oct 01:51:37 01:57:49 37° 98° (E) 02:05:01 435.800 - 435.900 CW/SSB
AO-Echo 25 Oct 01:55:52 01:59:58 22° 92° (E) 02:04:02 ?
Oscar 16 25 Oct 02:00:37 02:05:30 43° 99° (E) 02:10:21 437.025 USB, Beacon 2401.1428
RS-15 25 Oct 02:08:47 02:17:35 27° 344° (NNW) 02:26:32 29.354 - 29.394 USB, Beacon 29.352 USB
Uribyol 2 25 Oct 02:20:36 02:25:06 29° 95° (E) 02:29:33 436.500 FM
ITAMSAT 1 25 Oct 02:26:35 02:31:11 31° 96° (E) 02:35:45 435.822 SSB
PCSat 25 Oct 02:28:10 02:28:52 10° 101° (E) 02:29:34 145.825 MHz
Gurwin Techsat 1B 25 Oct 02:47:02 02:51:27 26° 94° (E) 02:55:49 435.225 FM
Oscar 19 25 Oct 02:53:59 02:59:03 63° 288° (WNW) 03:04:05 437.125 CW, 437.150 USB
TMSAT-1 25 Oct 02:58:17 03:02:35 24° 93° (E) 03:06:51 436.925 FM
AO-27 25 Oct 03:11:50 03:17:06 80° 104° (ESE) 03:22:19 436.795 MHz FM
AO-7 25 Oct 03:27:22 03:31:25 14° 87° (E) 03:35:26 29.400 - 29.500 MHz
AO-Echo 25 Oct 03:33:50 03:38:59 51° 289° (WNW) 03:44:06 ?
Oscar 16 25 Oct 03:40:29 03:44:37 25° 296° (WNW) 03:48:44 437.025 USB, Beacon 2401.1428
JAS-1B 25 Oct 03:42:20 03:48:28 44° 292° (WNW) 03:55:41 435.800 - 435.900 CW/SSB
Sapphire 25 Oct 03:43:43 03:48:52 47° 114° (ESE) 03:54:03 437.095 MHz 1200 baud AX-25 AFSK
Uribyol 2 25 Oct 03:59:51 04:04:38 38° 292° (WNW) 04:09:23 436.500 FM
PCSat 25 Oct 04:05:56 04:11:20 78° 118° (ESE) 04:16:46 145.825 MHz
ITAMSAT 1 25 Oct 04:05:57 04:10:42 36° 293° (WNW) 04:15:24 435.822 SSB
RS-15 25 Oct 04:25:39 04:34:46 28° 20° (NNE) 04:44:06 29.354 - 29.394 USB, Beacon 29.352 USB
Gurwin Techsat 1B 25 Oct 04:26:33 04:31:33 43° 291° (WNW) 04:36:32 435.225 FM
OPAL 25 Oct 04:29:10 04:34:01 44° 67° (ENE) 04:38:50 ?
TMSAT-1 25 Oct 04:37:39 04:42:41 45° 291° (WNW) 04:47:42 436.925 FM
AO-27 25 Oct 04:53:00 04:55:56 15° 302° (WNW) 04:58:52 436.795 MHz FM
JAS-2 25 Oct 05:09:55 05:16:11 26° 90° (E) 05:22:26 435.800 - 435.900 CW/SSB, 435.910 FM
AO-7 25 Oct 05:17:12 05:25:33 74° 106° (ESE) 05:33:53 29.400 - 29.500 MHz
Uosat F 25 Oct 05:18:46 05:23:51 71° 103° (ESE) 05:28:52 435.120 FM
Sapphire 25 Oct 05:27:45 05:32:29 30° 313° (NW) 05:37:14 437.095 MHz 1200 baud AX-25 AFSK
PCSat 25 Oct 05:51:20 05:55:22 21° 318° (NW) 05:59:25 145.825 MHz
OPAL 25 Oct 06:08:54 06:13:03 24° 264° (W) 06:17:12 ?
STRAND 1 25 Oct 06:13:56 06:18:47 44° 69° (ENE) 06:23:40 ?
Hamsat 25 Oct 06:21:19 06:25:22 46° 99° (E) 06:29:25 145.90 MHz
RS-15 25 Oct 06:38:43 06:49:48 65° 49° (NE) 07:01:19 29.354 - 29.394 USB, Beacon 29.352 USB
JAS-2 25 Oct 06:53:59 07:01:43 73° 288° (WNW) 07:09:30 435.800 - 435.900 CW/SSB, 435.910 FM
Uosat F 25 Oct 06:59:00 07:02:02 16° 300° (WNW) 07:05:04 435.120 FM
AO-7 25 Oct 07:10:53 07:17:38 29° 306° (NW) 07:24:24 29.400 - 29.500 MHz
Saudisat 1A 25 Oct 07:13:51 07:17:50 35° 116° (ESE) 07:21:51 436.775 MHz
SO-67 25 Oct 07:24:06 07:27:07 27° 96° (E) 07:30:06 435.3500 MHz FM
STRAND 1 25 Oct 07:54:04 07:58:09 24° 266° (W) 08:02:17 ?
Hamsat 25 Oct 07:58:16 08:00:58 17° 295° (WNW) 08:03:41 145.90 MHz
JAS-2 25 Oct 08:40:49 08:45:30 18° 307° (NW) 08:50:15 435.800 - 435.900 CW/SSB, 435.910 FM
RS-15 25 Oct 08:51:37 09:01:39 40° 252° (WSW) 09:12:05 29.354 - 29.394 USB, Beacon 29.352 USB
Saudisat 1A 25 Oct 08:53:34 08:57:26 30° 315° (NW) 09:01:20 436.775 MHz
SO-67 25 Oct 08:57:31 08:59:54 18° 292° (WNW) 09:02:16 435.3500 MHz FM
MaSat-1 25 Oct 09:02:36 09:05:14 56° 61° (ENE) 09:07:38 437.345 MHz
HO-68 25 Oct 09:28:01 09:34:57 48° 100° (E) 09:41:49 435.675 MHz FM
UKube-1 25 Oct 09:33:20 09:36:08 17° 92° (E) 09:38:54 145.840 MHz, 145.915 MHz
FUNcube-1 25 Oct 10:13:24 10:16:15 17° 92° (E) 10:19:03 145.950 - 145.970 MHz USB
Oscar 11 25 Oct 10:13:28 10:17:34 41° 98° (E) 10:21:38 145.825 FM, Beacon 2401.500 USB
Sapphire 25 Oct 10:48:53 10:50:51 12° 31° (NNE) 10:52:50 437.095 MHz 1200 baud AX-25 AFSK
ZACube-1 25 Oct 11:04:00 11:08:15 63° 101° (E) 11:12:23 437.345 MHz
KITSAT 1 25 Oct 11:04:28 11:10:44 26° 105° (ESE) 11:17:00 435.175 FM
UKube-1 25 Oct 11:08:22 11:12:35 48° 289° (WNW) 11:16:46 145.840 MHz, 145.915 MHz
PCSat 25 Oct 11:10:30 11:13:55 17° 38° (NE) 11:17:19 145.825 MHz
HO-68 25 Oct 11:16:02 11:22:28 37° 298° (WNW) 11:28:53 435.675 MHz FM
Oscar 16 25 Oct 11:44:30 11:45:20 10° 55° (NE) 11:46:10 437.025 USB, Beacon 2401.1428
FUNcube-1 25 Oct 11:48:50 11:52:51 42° 289° (WNW) 11:56:47 145.950 - 145.970 MHz USB
Oscar 11 25 Oct 11:50:23 11:53:27 19° 295° (WNW) 11:56:31 145.825 FM, Beacon 2401.500 USB
ISS 25 Oct 12:23:11 12:26:10 31° 138° (SE) 12:29:09 145.800 FM
Sapphire 25 Oct 12:30:21 12:35:39 49° 54° (NE) 12:40:54 437.095 MHz 1200 baud AX-25 AFSK
Oscar 19 25 Oct 12:33:46 12:38:05 28° 65° (ENE) 12:42:24 437.125 CW, 437.150 USB
JAS-1B 25 Oct 12:40:25 12:45:23 30° 64° (ENE) 12:50:14 435.800 - 435.900 CW/SSB
ZACube-1 25 Oct 12:42:06 12:44:06 13° 299° (WNW) 12:46:05 437.345 MHz
Oscar 10/S400 25 Oct 12:47:38 13:04:19 28° 150° (SSE) 13:21:06 145.825 - 145.975 CW/USB, Beacon 145.810 USB
PCSat 25 Oct 12:52:47 12:58:15 78° 59° (ENE) 13:03:39 145.825 MHz
AO-27 25 Oct 12:53:47 12:57:25 19° 61° (ENE) 13:01:03 436.795 MHz FM
SO-50 25 Oct 12:55:26 12:59:52 63° 121° (ESE) 13:04:27 436.795 FM
KITSAT 1 25 Oct 12:57:16 13:05:21 75° 304° (NW) 13:13:28 435.175 FM
AO-Echo 25 Oct 13:09:58 13:14:13 30° 66° (ENE) 13:18:37 ?
Oscar 16 25 Oct 13:18:37 13:23:45 72° 73° (ENE) 13:28:54 437.025 USB, Beacon 2401.1428
Uribyol 2 25 Oct 13:39:25 13:44:26 49° 70° (ENE) 13:49:28 436.500 FM
ITAMSAT 1 25 Oct 13:45:34 13:50:37 52° 70° (ENE) 13:55:42 435.822 SSB
ISS 25 Oct 13:59:36 14:02:47 41° 336° (NNW) 14:05:59 145.800 FM
Gurwin Techsat 1B 25 Oct 14:09:06 14:14:08 46° 69° (ENE) 14:19:11 435.225 FM
Oscar 19 25 Oct 14:12:28 14:17:16 39° 262° (W) 14:22:04 437.125 CW, 437.150 USB
Sapphire 25 Oct 14:14:21 14:18:46 26° 252° (WSW) 14:23:09 437.095 MHz 1200 baud AX-25 AFSK
UOSAT-12 25 Oct 14:16:00 14:20:18 39° 117° (ESE) 14:24:41 437.025 FM, 437.400 FM
TMSAT-1 25 Oct 14:20:00 14:24:58 43° 69° (ENE) 14:29:57 436.925 FM
AO-7 25 Oct 14:27:07 14:33:36 27° 53° (NE) 14:40:06 29.400 - 29.500 MHz
JAS-1B 25 Oct 14:30:32 14:36:01 38° 262° (W) 14:41:17 435.800 - 435.900 CW/SSB
AO-27 25 Oct 14:31:18 14:36:26 61° 259° (WSW) 14:41:38 436.795 MHz FM
SO-50 25 Oct 14:37:21 14:40:51 21° 321° (NW) 14:44:26 436.795 FM
PCSat 25 Oct 14:37:55 14:40:57 15° 256° (WSW) 14:43:59 145.825 MHz
AO-Echo 25 Oct 14:48:29 14:52:54 34° 264° (W) 14:57:29 ?
KITSAT 1 25 Oct 14:55:53 15:02:11 24° 328° (NNW) 15:08:31 435.175 FM
Uosat F 25 Oct 14:57:10 15:00:02 16° 59° (ENE) 15:02:55 435.120 FM
Oscar 16 25 Oct 15:00:49 15:03:38 15° 270° (W) 15:06:27 437.025 USB, Beacon 2401.1428
Uribyol 2 25 Oct 15:20:09 15:24:09 22° 267° (W) 15:28:11 436.500 FM
ITAMSAT 1 25 Oct 15:26:33 15:30:24 21° 268° (W) 15:34:17 435.822 SSB
JAS-2 25 Oct 15:27:28 15:29:36 12° 48° (NE) 15:31:47 435.800 - 435.900 CW/SSB, 435.910 FM
ISS 25 Oct 15:37:32 15:40:06 20° 356° (N) 15:42:40 145.800 FM
Saudisat 1A 25 Oct 15:39:04 15:43:18 42° 49° (NE) 15:47:29 436.775 MHz
Gurwin Techsat 1B 25 Oct 15:50:02 15:54:17 24° 267° (W) 15:58:35 435.225 FM
UOSAT-12 25 Oct 15:56:24 16:00:32 30° 315° (NW) 16:04:44 437.025 FM, 437.400 FM
TMSAT-1 25 Oct 16:00:38 16:05:01 26° 266° (W) 16:09:26 436.925 FM
AO-7 25 Oct 16:17:17 16:25:34 80° 253° (WSW) 16:33:54 29.400 - 29.500 MHz
Uosat F 25 Oct 16:33:11 16:38:12 75° 257° (WSW) 16:43:16 435.120 FM
